DW8228 Nauvo FI current weather conditions

sailwx.info

Wind from 228 at 7 knots gusting 15

Air temperature 3.9° C
Dewpoint 1.8° C

Last reported at 2020-Feb-18 23:46 UTC.
Time now 2020-Feb-19 00:46 UTC

Location: N 60°05' E 022°01'.
View on Google Maps.

See reports from other nearby stations

  
Tides and Currents Weather Stations Pressure Air Temp Water Temp Dewpoint Dewpoint Depression Visibility Wind Speed Wind Dir Waves Ship Positions
date/time (UTC)wind fromknots sea level pressurealtimeterstation pressurevisibilityair tempwater tempwave heightnotes
2020-Feb-18 23:46 228 7 gusting 15 3.9
2020-Feb-18 23:31 257 7 gusting 18 3.9
2020-Feb-18 23:16 258 7 gusting 17 3.9
2020-Feb-18 23:00 256 7 gusting 17 3.9
2020-Feb-18 22:45 253 7 gusting 16 3.9
2020-Feb-18 22:30 260 7 gusting 16 3.9
2020-Feb-18 22:15 254 7 gusting 15 3.9
2020-Feb-18 22:00 266 10 gusting 15 3.9
2020-Feb-18 21:45 243 6 gusting 16 3.9
2020-Feb-18 21:30 247 7 gusting 17 3.9
2020-Feb-18 21:15 255 6 gusting 17 3.9
2020-Feb-18 21:00 233 7 gusting 16 4.4
2020-Feb-18 20:45 245 9 gusting 19 4.4
2020-Feb-18 20:30 268 8 gusting 15 3.9
2020-Feb-18 20:15 265 8 gusting 17 3.9
2020-Feb-18 20:00 254 8 gusting 18 3.9
2020-Feb-18 19:45 239 8 gusting 17 4.4
2020-Feb-18 19:15 256 10 gusting 25 4.4
2020-Feb-18 19:00 254 10 gusting 19 4.4
2020-Feb-18 18:45 235 10 gusting 19 4.4
2020-Feb-18 18:30 212 10 gusting 19 4.4
2020-Feb-18 18:15 243 11 gusting 18 4.4
2020-Feb-18 18:00 227 12 gusting 20 4.4
2020-Feb-18 17:45 235 12 gusting 19 4.4
2020-Feb-18 17:30 244 13 gusting 21 4.4
2020-Feb-18 17:15 224 12 gusting 20 4.4
2020-Feb-18 17:00 241 11 gusting 18 4.4
2020-Feb-18 16:45 239 11 gusting 18 4.4
2020-Feb-18 16:30 240 11 gusting 19 4.4
2020-Feb-18 16:19 248 9 gusting 19 4.4
2020-Feb-18 16:01 230 9 gusting 16 4.4
2020-Feb-18 15:47 239 10 gusting 17 4.4
2020-Feb-18 15:31 251 10 gusting 17 4.4
2020-Feb-18 15:16 235 8 gusting 17 4.4
2020-Feb-18 15:02 244 9 gusting 19 4.4
2020-Feb-18 14:46 249 9 gusting 18 4.4
2020-Feb-18 14:31 241 9 gusting 16 4.4
2020-Feb-18 14:17 236 9 gusting 17 4.4
2020-Feb-18 14:01 241 9 gusting 16 4.4
2020-Feb-18 13:47 225 9 gusting 17 4.4
2020-Feb-18 13:31 219 9 gusting 17 4.4
2020-Feb-18 13:17 228 8 gusting 18 4.4
2020-Feb-18 13:01 236 7 gusting 14 5.0
2020-Feb-18 12:46 235 7 gusting 17 5.0
2020-Feb-18 12:31 241 10 gusting 19 5.0
2020-Feb-18 12:16 244 9 gusting 18 5.0
2020-Feb-18 12:01 233 10 gusting 15 5.0
2020-Feb-18 11:46 231 9 gusting 17 5.0
2020-Feb-18 11:32 233 7 gusting 14 5.0
2020-Feb-18 11:16 242 8 gusting 17 5.0
2020-Feb-18 11:01 247 7 gusting 18 5.6
2020-Feb-18 10:46 244 8 gusting 15 5.0
2020-Feb-18 10:31 230 9 gusting 15 5.0
2020-Feb-18 10:16 248 10 gusting 16 5.0
2020-Feb-18 10:01 236 7 gusting 16 5.0
2020-Feb-18 09:46 241 8 gusting 17 5.0
2020-Feb-18 09:31 229 9 gusting 18 5.0
2020-Feb-18 09:15 243 8 gusting 19 5.0
2020-Feb-18 09:02 231 9 gusting 16 5.0
2020-Feb-18 08:46 243 9 gusting 19 5.0
2020-Feb-18 08:17 257 8 gusting 19 4.4
2020-Feb-18 08:00 241 8 gusting 21 4.4
2020-Feb-18 07:45 235 8 gusting 16 4.4
2020-Feb-18 07:31 240 7 gusting 15 4.4
2020-Feb-18 07:15 242 7 gusting 20 4.4
2020-Feb-18 07:00 222 8 gusting 17 4.4
2020-Feb-18 06:45 231 8 gusting 17 4.4
2020-Feb-18 06:30 256 7 gusting 19 4.4
2020-Feb-18 06:15 238 8 gusting 17 4.4
2020-Feb-18 06:00 254 9 gusting 17 4.4
2020-Feb-18 05:45 246 7 gusting 19 4.4
2020-Feb-18 05:30 235 9 gusting 18 4.4
2020-Feb-18 05:15 262 8 gusting 16 4.4
2020-Feb-18 05:00 241 8 gusting 17 4.4
2020-Feb-18 04:45 241 9 gusting 19 4.4
2020-Feb-18 04:30 241 9 gusting 18 4.4
2020-Feb-18 04:17 249 8 gusting 17 4.4
2020-Feb-18 04:04 241 10 gusting 19 4.4
2020-Feb-18 03:47 231 9 gusting 17 4.4
2020-Feb-18 03:32 232 11 gusting 21 4.4
2020-Feb-18 03:16 244 12 gusting 21 4.4
2020-Feb-18 03:03 245 13 gusting 23 4.4
2020-Feb-18 02:46 239 13 gusting 20 5.0
2020-Feb-18 02:31 254 12 gusting 21 5.0
2020-Feb-18 02:17 241 12 gusting 25 5.0
2020-Feb-18 02:01 231 13 gusting 27 5.0
2020-Feb-18 01:46 239 15 gusting 26 5.0
2020-Feb-18 01:31 224 16 gusting 30 5.0
2020-Feb-18 01:17 239 16 gusting 27 5.0
2020-Feb-18 01:01 235 14 gusting 27 5.0
2020-Feb-18 00:46 228 19 gusting 31 5.0
2020-Feb-18 00:31 233 18 gusting 27 5.0
2020-Feb-18 00:16 241 18 gusting 33 5.0
2020-Feb-18 00:00 240 17 gusting 26 5.0
2020-Feb-17 23:46 248 19 gusting 32 5.0
2020-Feb-17 23:30 231 19 gusting 31 5.0
2020-Feb-17 23:15 228 18 gusting 31 5.0
2020-Feb-17 23:00 234 17 gusting 31 5.0
2020-Feb-17 22:45 223 19 gusting 37 5.0
2020-Feb-17 22:31 239 17 gusting 36 5.0
2020-Feb-17 22:15 231 18 gusting 35 5.0
2020-Feb-17 22:00 238 25 gusting 37 5.0
2020-Feb-17 21:46 241 22 gusting 34 5.0
2020-Feb-17 21:30 230 24 gusting 38 5.0
2020-Feb-17 21:15 222 25 gusting 40 5.0
2020-Feb-17 21:00 233 25 gusting 36 5.0
2020-Feb-17 20:45 245 24 gusting 33 5.0
2020-Feb-17 20:31 229 20 gusting 33 5.0
2020-Feb-17 20:15 235 23 gusting 37 5.0
2020-Feb-17 20:00 228 24 gusting 40 4.4
2020-Feb-17 19:45 228 28 gusting 39 5.0
2020-Feb-17 19:30 224 27 gusting 39 5.0
2020-Feb-17 19:15 224 26 gusting 40 5.0
2020-Feb-17 19:00 218 26 gusting 41 4.4
2020-Feb-17 18:45 226 26 gusting 38 5.0
2020-Feb-17 18:30 220 28 gusting 37 5.0
2020-Feb-17 18:15 224 28 gusting 39 5.0
2020-Feb-17 18:00 226 31 gusting 40 5.0
2020-Feb-17 17:45 226 24 gusting 39 5.0
2020-Feb-17 17:30 249 25 gusting 38 5.0
2020-Feb-17 17:15 237 19 gusting 32 5.0
2020-Feb-17 16:45 220 22 gusting 33 5.0
2020-Feb-17 16:30 223 25 gusting 40 5.0
2020-Feb-17 16:00 227 24 gusting 35 5.0
2020-Feb-17 15:31 239 21 gusting 34 5.0
2020-Feb-17 15:17 231 22 gusting 39 5.0
2020-Feb-17 15:02 233 23 gusting 37 5.0
2020-Feb-17 14:46 245 22 gusting 33 5.0
2020-Feb-17 14:30 222 19 gusting 32 5.0
2020-Feb-17 14:16 208 22 gusting 35 5.0
2020-Feb-17 14:01 229 21 gusting 33 5.0
2020-Feb-17 13:46 216 20 gusting 34 5.0
2020-Feb-17 13:31 237 19 gusting 41 5.0
2020-Feb-17 13:15 217 20 gusting 33 5.0
2020-Feb-17 13:01 233 18 gusting 34 5.0
2020-Feb-17 12:46 226 19 gusting 29 5.0
2020-Feb-17 12:31 235 16 gusting 28 5.0
2020-Feb-17 12:15 231 17 gusting 27 5.0
2020-Feb-17 12:01 233 16 gusting 27 5.0
2020-Feb-17 11:47 251 17 gusting 29 5.0
2020-Feb-17 11:30 245 17 gusting 30 5.0
2020-Feb-17 11:15 231 17 gusting 31 5.0
2020-Feb-17 11:00 233 18 gusting 29 5.0
2020-Feb-17 10:45 233 18 gusting 26 5.0
2020-Feb-17 10:30 232 18 gusting 30 5.0
2020-Feb-17 10:15 239 15 gusting 26 5.0
2020-Feb-17 10:01 229 14 gusting 26 5.0
2020-Feb-17 09:45 241 13 gusting 24 5.0
2020-Feb-17 09:30 227 13 gusting 25 4.4
2020-Feb-17 09:15 235 17 gusting 28 4.4
2020-Feb-17 09:00 247 13 gusting 25 4.4
2020-Feb-17 08:45 226 14 gusting 27 4.4
2020-Feb-17 08:30 224 14 gusting 26 4.4
2020-Feb-17 08:15 245 12 gusting 24 4.4
2020-Feb-17 08:00 220 11 gusting 25 3.9
2020-Feb-17 07:45 233 12 gusting 23 3.9
2020-Feb-17 07:30 244 13 gusting 26 3.9
2020-Feb-17 07:15 237 13 gusting 20 3.9
2020-Feb-17 07:00 226 11 gusting 19 3.9
2020-Feb-17 06:45 224 10 gusting 23 3.3
2020-Feb-17 06:30 251 11 gusting 19 3.9
2020-Feb-17 06:18 237 10 gusting 20 3.9
2020-Feb-17 06:01 245 8 gusting 17 3.9
2020-Feb-17 05:46 241 9 gusting 17 3.9
2020-Feb-17 05:32 242 9 gusting 16 3.9
2020-Feb-17 05:16 258 10 gusting 19 3.9
2020-Feb-17 05:01 245 10 gusting 21 3.9
2020-Feb-17 04:48 249 9 gusting 19 3.9
2020-Feb-17 04:31 241 9 gusting 19 3.9
2020-Feb-17 04:16 235 10 gusting 19 3.9
2020-Feb-17 04:01 236 11 gusting 23 3.9
2020-Feb-17 03:47 237 9 gusting 17 3.3
2020-Feb-17 03:31 241 9 gusting 17 3.3
2020-Feb-17 03:16 249 10 gusting 18 3.3
2020-Feb-17 03:01 238 11 gusting 21 3.3
2020-Feb-17 02:45 228 13 gusting 20 3.9
2020-Feb-17 02:31 241 11 gusting 17 3.3
2020-Feb-17 02:16 241 6 gusting 12 3.9
2020-Feb-17 02:00 243 4 gusting 11 3.9
2020-Feb-17 01:46 228 6 gusting 14 3.9
2020-Feb-17 01:30 244 6 gusting 17 4.4
2020-Feb-17 01:16 247 9 gusting 17 5.0
2020-Feb-17 01:00 245 10 gusting 24 5.0
2020-Feb-17 00:46 235 14 gusting 26 5.0
2020-Feb-17 00:30 224 14 gusting 21 5.0
2020-Feb-17 00:15 222 18 gusting 25 5.0
2020-Feb-17 00:01 232 19 gusting 28 5.6